2018-083G (43668 NORAD) Tracking and Keplerian Element Data

This shows tracking and keplerian element data for the satellite.

Feedback or suggestion? Click here.




ElementValue
Catalog43668
Name2018-083G
Epoch Orbit461
Epoch Day332.4506245
Epoch Year2018
RAAN353.0588
Inclination97.5161
Eccentricity0.0011334
Argument of Perigee155.4963
Mean Anonmoly334.3689
Mean Motion15.16479427
Decay Rate7.83E-06
L11 43668U 18083G 18332.45062450 .00000783 00000-0 43650-4 0 9990
L22 43668 97.5161 353.0588 0011334 155.4963 334.3689 15.16479427 4618



Live tracking and technical data element details for 2018-083G (NORAD 43668). 2018-083G can be tracked NOW for your location showing map with azimuth and elevation plus other details from your city location.







IsCatalogInMostPopularTable: catalog: 43668, numindb: 544
Update: records affected: 1



GetName: 43668 2018-083G

Hit Count: updated at: Mon, 18 May 2026 08:37:18 GMT